Content
SEND FEEDBACK

Daily
Averages
Monthly
Summary
United States of America

WESTON, MISSOURI


Home > North America > United States > Missouri
Elevation: 239 meters     Latitude: 39 22N     Longitude: 094 55W

WEATHER
 
SELECT A DAY
Number of Records: 191,839;   Date Range: 1/1/95 - 8/28/14
 
SHARE

PRINT THIS DATA

[ ← Previous Day ]
WEATHER ALMANAC - 13 FEBRUARY, 2013
[ Next Day → ]
[ °F ]   °C
Weather ElementAverageHighLow
Temperature4 °C12.8 °C (2:53 pm)-4.4 °C (6:53 am)
Dewpoint-5.4 °C-3.9 °C (10:53 am)-7.2 °C (5:53 am)
Humidity54.2 %81 % (6:53 am)29 % (2:53 pm)
Barometer1011.2 hPa1013.9 hPa (1:53 am)1009.1 hPa (4:53 pm)
Wind Speed13.8 km/h22.2 km/h (2:53 pm)
Wind Gust37 km/h (1:53 pm)
Weather ElementAverage
Visibility16.1 km
Wind DirectionWSW (241.7 °)

Weather ElementTotal
Precipitation---
Heating Degree Days14.2 (Base 18.3)
Averaged from 23 records on 13 February, 2013
WEATHER CONDITIONS BREAKOUT
WIND DIRECTION BREAKOUT
WEATHER BY HOUR - 13 FEBRUARY, 2013
[ °F ]   °C
Local TimeTemperatureDewpointHumidityBarometerVisibilityWind DirectionWind SpeedGust SpeedPrecipitationEventsConditions
1:53 AM-2.2 °C-6.7 °C72 %1013.9 hPa16.1 kmSW (230°)11.1 km/hClear
2:53 AM-2.2 °C-6.7 °C72 %1013.2 hPa16.1 kmWSW (240°)13 km/hClear
3:53 AM-2.8 °C-6.7 °C75 %1012.5 hPa16.1 kmSW (230°)13 km/hClear
4:53 AM-3.3 °C-6.7 °C78 %1012.5 hPa16.1 kmWSW (250°)11.1 km/hClear
5:53 AM-3.9 °C-7.2 °C78 %1012.5 hPa16.1 kmWSW (240°)9.3 km/hClear
6:53 AM-4.4 °C-7.2 °C81 %1012.9 hPa16.1 kmWSW (250°)11.1 km/hClear
7:53 AM-3.9 °C-6.7 °C81 %1012.9 hPa14.5 kmSW (220°)9.3 km/hPartly Cloudy
8:53 AM0 °C-5 °C69 %1013.2 hPa16.1 kmSW (220°)11.1 km/hPartly Cloudy
9:53 AM2.8 °C-4.4 °C59 %1013.2 hPa16.1 kmWSW (240°)11.1 km/hPartly Cloudy
10:53 AM5 °C-3.9 °C53 %1012.9 hPa16.1 kmSW (230°)9.3 km/hScattered Clouds
11:53 AM8.3 °C-3.9 °C42 %1012.5 hPa16.1 kmWest (260°)16.7 km/hMostly Cloudy
12:53 PM11.1 °C-4.4 °C34 %1011.2 hPa16.1 kmWSW (250°)18.5 km/hMostly Cloudy
1:53 PM12.2 °C-4.4 °C31 %1010.2 hPa16.1 kmWest (270°)20.4 km/h37 km/hScattered Clouds
2:53 PM12.8 °C-5 °C29 %1009.5 hPa16.1 kmWest (260°)22.2 km/hPartly Cloudy
3:53 PM12.2 °C-5.6 °C29 %1009.5 hPa16.1 kmWSW (240°)22.2 km/h37 km/hPartly Cloudy
4:53 PM11.7 °C-5.6 °C30 %1009.1 hPa16.1 kmWest (260°)22.2 km/hPartly Cloudy
5:53 PM8.9 °C-4.4 °C39 %1009.5 hPa16.1 kmWSW (250°)13 km/hPartly Cloudy
6:53 PM6.7 °C-4.4 °C45 %1009.8 hPa16.1 kmWSW (240°)11.1 km/hPartly Cloudy
7:53 PM5.6 °C-5 °C47 %1010.2 hPa16.1 kmWSW (240°)13 km/hClear
8:53 PM5 °C-5 °C49 %1009.5 hPa16.1 kmSW (220°)13 km/hClear
9:53 PM5 °C-5 °C49 %1009.5 hPa16.1 kmSW (230°)11.1 km/hPartly Cloudy
10:53 PM4.4 °C-5 °C51 %1009.5 hPa16.1 kmWSW (240°)14.8 km/hClear
11:53 PM3.3 °C-5.6 °C53 %1009.8 hPa16.1 kmWSW (250°)11.1 km/hClear
Hourly data recorded from KMCI, located 0 kilometers away from Weston, Missouri







STORIES FROM OUR PARTNERS